User: anonymous   Login
Location: Chuathbaluk
(61.5726°N, 159.2454°W)
Time: 10:41:08
(UTC+00:00)
Language:

FO-29 - Orbit

View from above orbital plane
View from above orbital plane
View from above satellite
View from above satellite

Ground track
Ground track

The orbit data is extracted from the following two-line orbital elements,

1 24278U 96046B   21016.79123983  .00000002  00000-0  37652-4 0  9999
2 24278  98.5846 104.7608 0350395 182.3442 177.6070 13.53101870205734
Epoch (UTC): 16 January 2021 18:59:23
Eccentricity: 0.0350395
inclination: 98.5846°
perigee height: 800 km
apogee height: 1321 km
right ascension of ascending node: 104.7608°
argument of perigee: 182.3442°
revolutions per day: 13.53101870
mean anomaly at epoch: 177.6070°
orbit number at epoch: 20573

The dashed part of the orbit path shows where the satellite is in the earth's shadow,  

DLR